Theta_e
293 294 294 295 295 294 295 295 295 295 294 293 293 292 294 295 297 297 300 301 300 300 300 299 299 298 298 299 299 300 302 303 303 302 302 302 303 304
290 291 292 292 293 293 294 294 294 293 293 293 292 292 293 294 294 296 297 299 299 298 298 298 298 298 296 298 299 300 301 303 303 302 301 301 301 300
290 290 290 289 290 290 291 290 290 291 292 292 292 292 291 292 292 293 294 296 297 298 297 297 296 295 296 296 297 298 299 300 301 301 301 300 300 300
289 289 288 287 286 289 290 290 290 290 289 290 291 291 291 291 291 292 292 293 295 296 296 295 295 295 294 294 293 294 295 296 296 296 297 298 298 297
287 287 286 286 285 285 288 289 289 290 290 289 289 289 290 290 291 291 291 291 293 293 294 295 295 294 294 294 293 293 293 293 294 295 295 295 295 295
287 286 286 285 285 284 286 287 288 288 289 289 288 288 288 289 288 289 289 290 291 291 292 292 293 293 293 293 293 292 292 292 292 292 292 294 295 295
286 284 283 282 283 285 285 286 287 287 287 287 286 286 286 285 286 287 288 289 291 291 292 292 292 292 292 292 292 292 291 291 291 291 291 291 291 291
283 282 281 282 283 284 285 285 286 286 285 284 284 284 284 284 284 285 286 287 287 289 290 291 291 291 291 292 292 292 292 291 291 291 291 291 291 291
282 281 280 280 281 282 282 283 283 284 284 284 284 284 284 283 283 283 283 284 284 286 287 288 289 290 290 290 290 290 291 292 292 292 292 292 292 291
281 280 280 281 281 281 281 281 282 282 282 282 282 282 282 283 283 283 284 284 284 284 285 285 286 287 288 288 288 288 289 290 290 291 291 290 291 291
280 280 279 279 280 281 281 281 282 282 282 282 282 282 282 283 283 283 283 283 283 284 284 284 285 285 286 286 287 287 287 287 287 287 287 287 288 288
279 279 279 280 281 281 280 281 281 281 281 281 281 282 282 282 283 283 283 284 284 284 284 284 284 284 284 286 286 286 286 286 286 286 287 287 287 287
278 278 278 279 280 280 280 280 280 279 279 280 280 280 281 281 281 282 282 282 283 283 284 285 284 284 285 285 285 286 286 286 286 286 287 288 288 288
278 278 279 279 279 279 279 280 279 279 280 280 280 281 281 281 282 283 283 283 283 284 284 285 285 285 285 285 285 285 285 286 287 287 287 288 288 288
278 278 278 278 278 279 279 279 279 280 280 280 280 280 281 281 282 283 283 284 284 285 285 285 285 286 286 285 285 285 285 285 286 286 286 287 288 288
278 278 277 278 278 278 278 278 278 279 279 279 280 281 281 282 283 283 284 285 286 285 286 285 285 285 285 285 285 285 285 285 285 285 285 285 286 287
277 277 277 277 277 277 277 277 278 278 278 279 280 281 281 282 283 284 285 286 286 286 286 286 286 286 286 285 285 285 285 285 285 285 285 285 286 287
277 276 276 276 276 276 276 277 277 277 278 279 280 280 281 282 283 284 285 286 286 287 286 286 287 287 287 286 286 286 286 285 285 285 286 286 286 286
276 276 275 275 275 275 276 276 277 277 278 279 279 280 281 282 282 283 284 284 285 286 287 287 287 287 286 287 286 287 287 287 285 285 285 285 285 286
275 275 275 275 275 275 275 276 276 276 277 278 279 280 281 281 281 282 282 283 283 284 284 285 285 285 286 286 286 286 286 286 286 286 286 286 286 286
275 275 275 275 275 274 275 275 275 276 276 278 279 279 280 280 280 281 281 281 282 282 283 283 283 283 284 284 285 285 285 285 285 285 285 285 285 286
275 275 275 275 274 274 274 274 275 275 276 277 278 279 279 280 280 280 280 280 281 281 281 282 283 283 283 283 284 285 284 284 284 283 283 283 284 285
277 275 275 275 274 274 274 274 274 274 274 275 277 278 278 279 279 279 279 279 280 279 281 282 282 282 283 283 283 283 283 282 282 282 282 282 282 283
Wind_Speed
28 29 29 23 25 22 21 21 23 26 31 29 28 20 15 14 15 18 20 20 19 22 19 21 24 26 24 22 22 23 26 27 25 23 22 22 22 23
21 22 21 21 23 25 22 21 20 20 30 26 27 22 18 18 13 15 21 14 14 12 20 18 18 17 17 20 20 21 23 26 27 26 24 23 22 21
22 20 21 21 24 28 29 29 27 22 22 27 25 21 22 23 21 15 15 15 16 24 19 19 18 20 21 21 21 20 20 22 24 25 25 25 24 23
16 21 24 31 32 24 24 26 26 26 24 23 24 20 17 15 15 12 14 14 13 14 17 20 16 14 17 16 16 19 24 23 22 23 24 25 25 25
29 32 32 29 30 30 25 25 25 19 18 20 23 18 16 14 17 14 11 14 17 12 9 16 19 19 21 21 22 22 21 24 29 29 27 25 25 25
34 32 34 34 32 30 28 24 25 27 30 27 26 26 25 20 18 19 18 12 16 18 19 16 13 13 12 17 20 22 22 21 23 25 29 33 32 31
38 39 37 32 24 21 24 24 23 25 26 27 30 30 30 32 29 23 20 19 14 11 8 9 11 14 15 16 20 22 22 23 23 22 21 20 24 31
31 36 33 23 17 19 21 21 21 17 19 20 23 25 26 25 26 27 27 23 22 19 17 16 14 14 14 14 17 23 28 32 30 29 27 24 21 21
32 31 27 22 22 24 25 25 24 22 21 22 24 25 27 25 24 25 27 28 25 29 25 26 23 20 17 16 18 19 21 22 23 23 23 26 27 27
29 29 26 24 23 23 24 24 25 28 27 26 26 30 29 30 23 21 21 23 25 26 26 31 33 32 31 30 24 20 22 23 24 27 29 28 27 28
26 31 26 26 23 20 22 22 22 22 19 18 18 21 21 23 24 24 26 26 29 28 24 25 24 26 29 31 31 30 29 29 29 30 31 36 37 35
32 32 21 17 18 18 18 20 23 22 22 22 23 22 23 25 21 22 23 21 24 28 23 22 27 28 29 24 23 22 21 23 26 22 20 27 28 30
30 23 21 21 21 20 22 22 20 17 17 19 20 21 20 21 23 24 26 31 30 28 22 22 22 20 22 24 23 20 18 18 20 19 17 16 17 20
22 21 17 20 18 21 12 12 14 13 10 9 9 9 10 11 10 10 13 15 18 24 22 21 22 21 20 22 25 21 21 17 14 15 16 17 19 17
19 15 16 19 15 10 11 12 10 9 6 6 8 9 10 10 12 13 13 14 15 18 20 20 22 22 24 25 24 23 20 21 21 19 18 19 20 19
15 15 17 13 11 14 13 9 9 9 7 7 8 6 6 5 5 5 8 8 9 8 8 11 13 17 21 22 22 23 20 21 20 20 21 21 20 15
14 15 17 16 14 16 16 12 12 12 8 6 5 6 5 5 3 3 5 6 7 8 6 6 7 11 14 16 19 19 20 21 22 21 20 19 20 19
14 13 16 17 15 14 13 13 15 15 9 8 7 7 6 6 6 4 4 3 3 6 8 7 6 9 11 14 15 17 18 18 16 14 14 17 21 16
14 13 15 16 16 14 12 12 15 16 9 8 7 8 7 7 6 6 4 5 4 6 2 6 6 5 7 15 12 15 16 10 14 16 17 20 23 22
14 13 14 16 16 14 13 11 11 11 10 8 8 9 9 8 8 7 6 5 4 4 5 5 5 4 5 7 8 10 9 8 11 15 18 20 22 20
16 13 13 15 16 15 13 10 11 11 10 6 8 8 8 8 9 7 7 6 6 5 5 6 5 4 4 2 2 4 2 4 5 9 12 14 12 10
15 14 14 15 15 15 14 13 13 13 10 6 6 7 6 8 10 9 8 7 8 8 6 5 5 4 5 5 5 3 1 4 6 3 2 4 7 6
15 14 15 14 14 15 15 14 14 14 12 9 4 5 5 5 7 7 7 7 7 9 3 2 2 3 3 3 3 2 3 5 5 3 4 6 7 7
Wind_Direction
308 303 297 293 287 273 274 281 281 286 296 306 313 322 315 319 295 299 266 261 257 240 237 265 264 273 261 254 249 240 240 239 242 243 246 248 248 245
320 314 309 309 302 300 290 287 281 297 299 300 305 315 322 319 306 306 275 250 251 220 241 252 260 270 265 258 253 246 240 240 241 242 243 246 248 250
321 319 320 324 320 312 313 313 310 303 295 298 303 302 293 294 301 296 305 296 275 224 222 261 265 267 269 267 260 252 243 239 239 240 244 248 250 249
309 307 306 310 307 302 306 298 292 294 283 298 290 285 283 287 298 306 307 287 315 243 235 263 265 263 268 270 272 263 255 249 244 241 242 245 249 251
307 307 305 307 302 297 294 296 286 283 281 281 286 288 283 281 282 297 306 289 271 293 275 255 256 257 259 258 263 268 267 259 255 253 252 253 253 253
311 309 307 304 301 296 288 293 288 284 277 276 287 289 286 280 292 304 296 291 272 265 262 262 259 254 256 257 259 262 269 270 266 266 263 261 262 263
312 313 312 306 298 298 292 288 281 279 281 282 284 287 285 286 283 282 287 288 269 282 257 235 238 244 242 244 248 257 265 268 268 268 268 268 267 262
321 320 318 304 300 294 291 286 275 279 274 276 280 285 286 281 276 269 273 285 292 264 274 247 251 248 257 248 241 242 244 258 262 267 270 273 261 259
320 325 322 313 300 295 296 297 290 284 280 277 278 279 280 281 284 283 275 279 282 272 278 272 262 260 256 265 261 255 252 253 262 270 271 269 268 265
321 322 317 312 311 306 301 294 291 289 285 281 279 279 277 276 275 274 276 276 274 272 273 276 269 270 266 263 261 267 268 264 263 264 269 274 273 273
320 325 317 311 310 309 304 297 292 289 287 281 274 269 270 267 268 270 270 275 275 271 266 272 272 272 267 265 262 264 266 271 278 275 276 272 270 266
322 325 322 323 321 318 311 305 299 295 291 284 273 267 269 267 261 260 262 267 273 277 276 275 269 268 276 269 267 266 266 265 264 267 281 275 271 267
323 326 321 313 315 310 308 303 306 308 297 288 281 275 271 265 263 260 258 254 260 267 268 280 273 267 258 261 263 269 263 261 270 274 273 275 274 275
332 332 339 333 316 314 318 317 315 313 308 317 310 301 291 276 260 265 268 253 256 259 266 271 274 268 262 266 273 270 257 257 263 269 278 274 264 275
345 345 335 330 343 347 354 337 332 334 342 333 311 302 293 283 270 265 263 265 264 263 265 266 266 264 259 262 265 270 264 252 261 265 277 280 266 262
353 348 347 359 9 9 358 355 354 349 334 316 317 320 324 318 295 277 272 265 285 286 274 264 263 255 257 261 266 267 265 259 262 262 274 276 286 270
349 352 1 6 6 13 10 22 18 6 5 354 345 345 340 333 333 301 348 269 285 306 301 272 261 255 252 259 266 269 268 263 263 270 271 272 279 268
351 1 2 3 3 3 7 21 25 11 18 26 25 7 1 24 16 355 342 344 315 318 296 284 283 247 251 258 264 276 280 272 264 257 255 267 266 264
7 4 359 358 1 5 7 14 22 14 11 24 31 32 33 34 21 0 341 345 304 359 51 313 217 245 248 253 273 288 273 279 264 259 260 266 277 281
358 354 356 354 357 360 1 3 3 9 19 31 41 46 47 30 15 11 8 4 359 14 3 357 346 312 282 270 269 282 291 296 273 266 268 269 274 281
357 355 352 351 355 355 355 355 352 359 6 22 36 42 47 42 27 15 6 4 346 325 324 322 342 339 322 290 300 328 298 279 288 280 275 270 269 296
356 357 352 354 359 358 0 2 4 8 15 20 30 31 35 45 37 22 7 1 356 332 326 327 312 325 346 298 284 257 230 323 312 303 331 322 287 256
350 354 354 353 358 359 0 5 10 14 17 16 12 13 10 34 28 28 10 354 349 2 357 23 16 328 317 345 338 269 344 337 331 295 299 327 337 302